Wind_Speed
10 9 9 9 9 9 9 9 9 10 10 10 9 9 8 8 8 7 8 9 9 10 10 9 8 8 8 9 9 10 10 9 8 8 6 5 5 5 5 5 6 7 7 8 9 10 10 10 11 12 13 14 16 16 15 15 14 14 14 14 14 14 15 15 15 15 15 15 14 14 14 14 13 13 13 13 12 11 11 11 11 10 9 9 8
10 9 10 10 10 10 10 10 10 10 9 9 9 7 6 7 8 8 10 10 8 9 10 8 7 7 8 9 9 10 10 10 9 8 7 6 5 5 5 5 5 6 7 7 7 8 9 9 9 10 12 13 13 14 15 16 15 15 16 16 16 15 16 16 16 16 16 16 16 15 15 15 15 15 14 14 13 13 12 12 12 11 11 10 10
11 11 11 12 12 11 11 11 10 9 7 8 8 8 7 7 9 10 10 9 7 8 9 8 7 7 7 8 8 8 9 9 9 8 7 7 7 6 6 5 5 5 6 6 5 6 7 8 8 8 10 11 11 12 14 16 17 17 18 17 17 17 17 17 17 17 17 17 17 17 17 17 16 16 16 15 15 14 14 13 13 13 12 12 11
12 12 12 13 12 11 11 11 10 8 7 8 9 11 10 9 10 9 7 7 7 7 7 7 7 7 7 7 7 8 8 8 8 8 8 8 8 7 6 6 5 5 5 6 5 4 5 6 6 6 8 9 11 13 14 15 18 19 19 18 18 19 19 19 19 19 18 18 18 18 18 18 17 17 17 17 16 16 15 15 14 14 14 13 13
13 13 13 13 12 11 10 10 9 8 8 10 11 11 11 9 8 7 5 6 6 6 6 6 6 7 7 7 7 8 8 8 7 7 8 8 8 8 7 7 6 6 5 6 6 5 5 6 6 6 7 8 10 12 13 14 16 17 17 18 19 20 21 21 21 20 19 19 19 19 19 19 19 19 18 18 17 17 17 16 16 15 15 15 14
13 13 13 13 12 10 9 10 11 10 10 11 10 9 8 7 6 5 5 6 6 6 6 6 6 6 7 7 7 8 8 8 8 7 7 7 8 8 8 8 7 7 7 6 5 4 5 7 8 8 8 7 7 10 12 13 14 16 17 18 19 21 22 23 22 21 21 21 21 21 20 20 20 20 20 19 19 18 18 18 17 17 16 16 15
13 13 13 12 11 10 9 11 12 10 10 9 8 7 6 5 5 5 6 5 6 6 6 6 6 7 7 6 7 7 7 8 8 7 7 6 7 8 8 9 9 8 8 7 6 5 4 6 8 8 9 8 7 8 10 11 13 16 18 19 20 21 23 23 23 23 22 22 22 22 21 21 21 21 21 20 20 20 19 19 19 18 17 17 17
12 12 13 11 9 8 8 9 8 7 8 7 6 6 5 6 5 5 6 6 6 6 6 7 7 7 7 7 7 7 7 7 6 6 6 6 6 7 7 8 8 7 7 6 6 6 5 6 7 8 8 8 8 7 8 9 13 17 20 21 21 21 22 23 24 24 23 23 23 23 22 22 22 22 21 21 21 21 20 20 20 19 19 18 18
13 13 13 10 7 6 7 7 6 6 6 5 5 5 5 6 5 6 7 7 6 6 7 7 7 8 7 7 7 6 6 5 5 5 6 6 6 6 5 6 6 6 5 5 6 6 6 7 7 7 7 7 7 7 8 9 13 18 20 21 21 22 22 22 24 24 24 24 23 22 22 23 23 23 22 22 22 21 21 21 20 20 20 19 19
13 12 11 9 6 5 6 6 5 4 5 5 5 5 5 6 6 7 6 6 6 7 8 8 8 8 8 8 7 5 5 4 4 4 4 4 4 3 3 4 4 4 4 4 4 5 5 6 7 7 6 6 6 7 9 12 14 16 18 19 20 21 22 23 23 23 24 24 23 23 23 23 23 24 24 23 22 22 22 22 21 21 21 21 20
10 9 9 7 5 4 4 4 4 4 4 5 4 6 7 6 6 6 6 6 6 6 8 8 8 9 8 8 5 4 3 1 1 1 1 2 2 2 1 1 1 1 2 2 2 2 3 3 4 5 5 6 6 8 11 12 12 13 16 17 17 19 20 22 23 23 22 21 22 24 24 23 24 24 24 24 24 23 23 23 22 22 21 21 21
9 9 9 7 5 4 3 4 3 3 4 4 5 7 7 6 5 6 6 6 6 6 7 7 8 8 7 5 3 1 2 4 4 3 3 3 3 3 3 4 4 4 3 2 2 1 1 1 1 2 3 5 6 9 12 12 12 14 15 16 16 17 19 19 21 22 21 20 21 22 23 24 25 24 24 24 24 25 24 24 23 23 23 22 22
9 10 9 7 5 3 4 4 3 3 4 5 7 7 5 4 4 6 5 5 5 5 6 6 7 7 5 4 3 2 5 7 7 5 4 4 4 4 5 5 5 5 5 4 3 3 2 1 1 1 1 2 4 7 9 10 12 13 14 15 16 18 19 19 18 18 18 20 21 21 22 24 25 25 25 25 25 25 26 25 24 24 24 23 23
10 10 10 7 5 4 4 4 4 4 4 6 8 6 3 3 4 5 4 4 3 4 6 5 5 7 6 4 3 3 5 6 7 6 4 5 5 6 5 5 6 5 5 5 4 4 3 3 1 1 1 2 2 4 6 7 9 11 11 13 15 17 19 18 15 15 16 18 20 21 23 23 24 26 26 26 26 26 26 26 26 26 25 24 24
11 11 11 9 7 6 6 5 5 4 5 6 6 4 3 3 3 3 3 3 2 2 4 4 5 6 5 3 2 2 4 5 5 4 4 5 6 6 6 6 6 5 5 5 5 4 4 4 2 1 1 2 2 2 4 5 7 8 8 10 12 14 15 14 13 14 15 17 18 19 22 24 24 26 26 27 27 27 26 26 28 28 27 26 25
12 11 11 11 9 8 7 5 4 4 5 4 4 3 2 2 2 2 2 2 2 2 3 3 4 4 3 2 1 2 2 2 6 2 3 3 5 6 7 7 7 6 7 6 5 5 4 4 4 3 2 1 2 2 3 4 5 6 6 7 9 10 10 10 12 14 15 16 16 17 20 23 24 25 26 27 28 28 27 27 27 28 29 28 27
13 12 12 11 10 8 6 5 4 4 3 2 2 3 2 1 2 1 1 2 1 1 2 2 3 3 2 2 1 1 2 5 6 1 2 2 4 5 8 8 8 8 8 8 7 6 6 6 6 6 5 4 4 4 3 4 5 5 6 6 7 7 7 7 9 12 12 14 16 17 20 22 24 24 25 27 28 28 28 28 27 28 29 29 29
14 13 12 10 9 7 5 5 5 4 2 2 3 3 2 2 2 2 2 2 1 1 1 2 2 2 2 2 1 2 2 5 4 1 2 2 4 4 7 8 9 10 10 9 9 8 8 8 8 8 7 7 7 7 6 6 6 6 6 6 7 6 6 7 8 9 10 12 14 16 19 21 22 24 25 26 27 27 27 28 28 28 28 29 30
14 13 11 9 8 6 6 6 5 4 3 3 3 3 3 3 3 3 3 2 1 1 1 1 1 1 2 1 1 2 2 3 3 3 3 1 2 4 7 8 8 9 10 10 9 9 10 9 9 9 10 10 10 10 10 10 9 9 8 8 7 7 7 7 8 9 10 11 12 14 17 19 21 23 23 24 26 27 26 26 28 29 30 30 30
13 12 10 9 7 6 7 7 6 6 5 4 4 4 4 4 4 4 3 2 2 1 1 1 1 1 1 1 1 1 2 2 2 3 3 3 2 3 6 6 6 7 9 9 9 10 11 11 10 11 12 12 13 13 13 12 11 11 11 11 10 9 9 8 9 10 11 12 12 13 15 17 20 22 22 23 24 25 26 26 27 29 30 31 31
13 12 10 9 7 7 8 8 8 7 6 5 5 5 5 5 5 5 4 3 2 2 1 2 1 1 1 1 1 1 1 1 1 2 2 3 3 2 4 4 4 5 7 7 7 8 9 10 11 11 11 13 14 14 15 14 14 13 12 12 12 11 10 10 10 11 12 13 14 14 14 15 17 20 21 22 23 23 24 25 27 28 29 31 32
14 12 11 9 8 8 9 9 9 9 8 6 6 6 6 6 6 5 4 3 3 2 2 2 2 2 2 2 2 1 1 1 1 1 2 3 3 4 4 4 3 3 5 6 5 5 6 9 9 9 10 12 13 15 16 15 15 15 14 14 13 13 12 11 11 11 12 14 15 16 16 17 17 18 20 21 22 23 24 25 26 27 28 29 30
15 13 12 11 10 9 9 10 10 10 9 7 7 7 6 6 6 5 4 3 3 3 2 2 2 3 3 3 2 2 2 2 1 1 2 3 4 4 3 4 5 2 3 6 4 2 3 6 7 7 8 10 12 14 15 14 15 16 16 16 16 15 14 13 13 12 13 14 15 16 17 18 19 19 20 21 22 23 25 26 26 27 28 28 29
16 15 14 13 11 10 10 11 11 10 9 7 7 7 6 6 6 5 5 3 3 2 3 4 4 4 4 3 3 3 3 3 2 2 3 4 4 5 4 3 3 3 5 7 3 2 1 2 5 6 7 9 12 14 15 14 15 16 17 18 17 17 16 15 15 14 14 14 15 16 17 18 20 21 21 21 22 23 24 25 26 27 28 28 29
17 17 15 14 12 10 10 11 10 9 8 8 8 7 7 6 5 5 5 4 3 3 4 5 5 5 5 4 4 4 4 3 3 3 4 4 5 6 6 4 4 4 4 4 4 5 3 2 4 7 7 10 12 16 18 16 16 16 17 18 18 18 17 17 16 16 16 15 16 16 17 18 19 21 22 23 23 24 25 25 26 27 27 28 29
18 17 16 14 12 10 10 10 10 9 8 8 8 8 8 7 6 6 6 5 4 4 5 6 6 6 5 5 5 5 5 4 4 4 5 5 6 7 7 7 6 6 4 3 3 5 4 5 7 7 7 10 14 18 19 19 18 16 16 18 18 18 17 18 18 17 16 16 16 17 17 18 19 20 22 24 25 25 25 25 26 27 27 28 28
18 17 15 14 11 10 10 10 10 9 9 9 9 9 9 8 7 6 6 5 5 5 5 6 7 6 6 6 6 6 6 6 6 6 6 6 7 8 7 6 6 5 5 4 5 6 5 6 8 8 8 11 16 19 20 20 20 18 17 17 18 18 18 18 18 17 17 16 16 16 17 18 18 19 20 23 25 26 26 26 26 26 27 28 29
17 16 14 13 12 11 12 11 11 11 10 10 9 9 9 8 8 7 7 6 6 6 6 6 7 7 7 7 7 7 7 7 8 8 7 7 8 8 7 7 6 5 5 5 6 6 6 6 7 8 10 14 18 20 21 21 21 19 18 17 17 18 18 18 17 17 18 18 17 17 17 18 18 18 19 20 23 25 27 27 26 27 27 28 29
17 16 15 14 13 13 13 12 12 11 11 10 9 9 9 8 8 8 7 7 8 8 8 8 8 8 8 9 9 9 8 8 9 9 8 8 9 9 9 9 9 6 5 5 6 8 9 9 9 9 10 15 19 21 22 22 22 20 19 18 18 18 18 17 17 17 18 19 19 19 19 19 19 20 19 19 21 23 26 27 27 27 27 28 29
18 17 15 15 15 14 15 14 13 11 11 11 10 10 9 9 9 9 9 9 10 10 10 10 10 9 10 10 10 10 10 10 10 9 10 11 11 11 11 11 10 10 9 8 8 10 13 13 12 11 11 14 18 20 22 23 23 22 20 19 19 18 19 18 18 18 18 19 20 21 22 22 22 21 21 20 20 21 23 26 28 28 28 28 29
18 18 17 16 16 16 16 15 13 12 12 11 11 10 10 10 10 10 10 11 11 11 11 11 11 11 12 11 11 11 10 10 10 10 11 13 14 14 14 13 13 13 13 11 9 10 12 15 17 16 15 15 16 18 21 21 23 23 22 21 19 19 19 20 20 20 20 20 21 23 24 25 24 23 22 22 21 21 21 24 27 29 28 28 29
19 19 18 17 17 17 16 16 14 13 12 12 11 11 11 11 10 10 11 12 12 12 11 12 13 14 14 14 13 13 11 11 11 11 11 12 14 15 15 15 15 15 14 13 11 11 14 17 19 19 18 17 16 16 17 18 20 23 25 23 21 20 20 21 22 23 23 23 23 25 25 25 25 24 23 22 22 22 21 22 25 28 29 28 28
20 20 19 18 18 17 17 16 15 14 13 13 12 12 12 12 12 12 12 13 13 13 12 12 13 15 16 16 15 15 14 12 11 11 11 11 13 14 15 15 16 15 15 15 14 15 16 16 17 19 20 19 19 16 15 16 17 19 22 22 21 21 21 21 22 23 25 25 25 26 26 26 26 25 24 23 22 22 22 22 23 26 29 30 29
20 19 19 19 18 18 18 17 16 15 15 14 14 14 14 14 14 14 14 15 15 15 14 14 15 15 16 16 16 16 15 15 13 13 12 11 12 13 13 14 16 16 16 17 16 17 18 17 17 19 19 19 20 18 16 17 17 18 19 20 21 21 21 21 21 22 25 27 27 28 28 27 26 26 26 25 23 22 23 23 23 24 27 31 32
20 20 20 20 19 19 19 19 17 17 16 16 15 15 16 16 16 17 17 18 18 17 16 16 15 15 15 15 15 15 15 15 14 13 12 11 11 12 13 13 15 16 16 16 16 17 19 19 18 18 19 19 20 20 18 18 18 19 18 18 19 21 22 23 22 23 26 27 28 29 29 27 26 26 27 27 27 25 24 24 24 25 25 28 32
20 21 21 21 20 20 21 21 20 19 19 18 17 17 18 19 19 20 20 21 21 21 19 18 17 15 14 14 14 14 14 14 14 13 12 12 11 11 12 13 14 15 15 15 15 16 17 19 19 18 18 19 20 19 19 19 19 18 16 16 17 20 22 23 22 24 27 28 30 30 30 28 27 28 29 29 30 29 28 27 26 25 26 27 30
21 22 22 22 22 22 23 23 22 22 21 20 19 19 20 21 21 22 22 22 22 22 22 21 20 18 16 15 14 14 14 14 14 13 12 12 11 10 11 12 13 13 14 14 15 15 15 18 21 20 18 18 19 19 19 20 20 18 16 16 17 19 21 22 22 23 26 28 29 30 30 29 28 28 30 31 32 31 31 31 29 27 26 27 29
22 22 23 24 25 24 24 24 24 24 22 22 21 21 22 22 23 23 23 22 21 21 21 21 21 21 19 17 17 16 15 15 15 14 13 12 11 11 11 12 13 13 14 14 14 14 15 16 19 20 18 17 18 18 17 18 19 20 19 19 18 18 19 21 21 21 22 23 25 28 29 28 28 29 30 31 33 33 33 33 33 30 28 27 28
24 24 25 26 26 26 25 25 25 25 23 23 23 22 23 24 24 23 21 20 20 20 21 21 20 20 21 20 20 19 18 18 17 17 15 13 12 12 12 12 12 13 14 14 14 14 14 15 17 18 18 17 17 17 17 17 18 20 20 19 19 19 19 20 22 22 22 22 24 26 27 27 28 29 30 32 34 35 34 34 34 34 31 28 28
26 26 27 27 27 27 26 26 26 25 24 24 24 24 24 23 22 21 20 18 18 19 20 20 20 20 21 22 22 21 20 19 19 18 17 15 13 13 13 12 12 13 14 14 14 13 13 14 16 17 17 18 18 18 17 17 18 19 19 19 21 22 22 22 23 24 24 24 25 24 23 24 24 25 26 29 33 34 34 34 34 34 33 29 27
29 29 28 27 27 27 27 27 26 25 25 25 24 23 21 20 20 20 19 17 17 18 19 18 19 20 21 21 20 20 20 19 19 19 18 18 17 16 15 14 13 13 14 14 14 14 14 14 15 16 16 17 18 18 17 17 18 20 20 20 21 22 23 24 24 24 23 24 25 25 23 22 21 23 24 26 31 34 34 33 32 30 29 28 26
31 31 29 28 28 28 28 27 26 26 26 25 24 21 20 20 20 20 19 17 16 17 18 17 17 18 19 19 20 19 19 20 20 20 20 20 20 20 19 17 15 15 15 15 15 15 15 15 15 16 16 17 18 19 18 18 19 20 19 19 20 21 23 23 23 21 20 22 25 26 26 23 22 24 24 24 30 35 32 29 29 30 30 30 29
33 32 30 29 29 29 28 27 27 27 26 25 23 21 20 20 20 20 19 18 17 18 19 18 18 17 17 18 19 19 20 21 21 22 22 22 21 22 21 21 20 19 18 17 17 17 17 16 16 17 17 18 20 19 19 19 20 20 20 19 21 22 22 21 19 18 18 21 25 28 30 26 23 25 26 25 29 33 31 30 33 35 35 35 34
33 32 31 30 30 28 27 27 28 28 27 25 22 22 22 21 21 21 21 20 20 20 20 20 20 19 19 19 21 21 22 23 23 23 22 22 21 22 21 21 22 22 22 21 19 18 18 17 18 18 18 20 21 19 19 20 20 21 22 22 21 22 23 22 21 21 21 23 25 28 31 28 23 25 29 27 28 30 32 35 37 37 37 37 36
34 33 31 31 30 29 27 27 27 29 28 25 23 22 23 22 21 22 23 22 22 22 22 22 23 23 22 22 22 23 24 24 24 22 21 21 21 21 21 21 23 24 24 24 23 21 20 18 17 19 20 21 21 20 20 21 20 20 21 21 21 23 24 24 24 26 26 25 27 29 31 29 25 26 30 30 28 29 32 36 37 36 36 36 36
33 32 31 31 30 29 28 26 26 28 28 26 24 23 24 23 22 23 24 25 25 25 25 25 25 25 26 25 25 26 25 25 24 21 19 19 18 19 19 20 21 22 23 23 22 21 21 20 19 20 21 20 20 21 21 20 19 19 20 21 22 24 26 25 26 29 28 27 27 27 27 27 25 26 30 31 30 30 31 35 37 36 36 37 37
33 32 30 29 28 28 27 25 24 27 29 27 25 24 24 25 23 24 25 26 27 27 27 27 27 28 27 26 26 24 23 23 21 19 18 17 17 17 18 18 19 19 18 18 17 17 18 19 18 18 19 20 21 22 21 20 19 19 19 20 21 23 25 25 25 28 27 26 26 24 24 26 25 27 30 31 30 31 32 34 36 35 35 36 37
31 30 29 28 27 27 27 26 25 28 29 28 25 25 26 26 25 25 26 27 28 28 28 27 27 26 26 26 25 22 21 20 19 18 18 18 16 16 17 19 19 18 17 18 20 20 18 18 18 19 20 22 23 23 23 23 21 17 16 18 19 20 22 22 22 25 26 25 26 26 26 26 26 29 32 31 32 33 33 34 35 35 35 36 36
27 28 27 26 26 27 27 27 28 30 30 27 25 25 26 26 25 25 26 28 28 28 26 23 21 22 24 24 22 19 20 20 19 19 19 18 16 16 18 18 17 18 17 17 20 21 18 16 19 20 21 22 22 23 23 22 19 15 14 17 18 19 20 18 18 22 26 28 28 28 27 26 26 29 32 32 33 35 34 34 36 34 34 36 37
26 26 24 23 25 28 28 29 30 30 30 28 25 24 24 24 24 23 25 26 25 23 21 20 21 23 24 22 19 20 24 23 20 19 18 17 17 18 18 16 15 17 16 13 14 16 15 16 17 17 18 19 21 23 22 21 19 16 14 16 18 19 20 18 18 23 27 30 29 26 24 24 25 27 30 30 32 35 34 33 33 33 32 32 34
24 22 21 22 26 28 29 30 29 29 29 28 26 25 24 24 23 22 22 21 19 17 16 20 25 25 24 22 21 22 26 25 21 18 18 17 18 18 16 13 12 14 14 13 14 15 14 15 15 15 16 17 18 19 19 19 19 17 14 16 18 20 20 20 22 21 19 23 25 22 21 23 25 27 28 23 20 26 31 29 29 31 30 29 29
Wind_Direction
269 274 277 279 283 287 291 294 300 307 313 319 316 309 306 303 299 299 297 291 292 294 290 286 286 286 284 281 279 280 280 281 285 289 289 283 282 286 282 275 269 269 264 255 247 248 256 256 247 239 235 234 229 227 230 233 238 239 236 235 234 232 231 231 231 231 231 232 235 238 238 237 237 237 236 237 237 239 240 240 240 240 240 240 243
273 277 281 284 288 291 293 295 303 306 310 313 310 308 306 305 304 305 300 291 289 293 288 282 281 283 283 282 280 279 277 275 274 273 273 267 265 272 278 275 265 266 266 261 254 251 255 254 248 239 237 238 234 231 232 233 237 241 240 239 238 237 235 235 234 233 233 234 235 238 241 241 240 239 239 239 240 242 243 244 244 244 244 244 245
274 281 285 291 294 295 296 296 299 299 298 300 302 303 297 299 303 303 300 290 287 291 286 281 281 281 280 278 280 280 277 276 272 266 263 259 257 261 272 276 268 264 268 270 262 254 254 249 249 247 244 245 239 231 230 232 232 235 238 240 242 240 237 237 238 237 236 236 236 237 239 242 243 242 242 240 240 243 245 247 247 247 246 247 248
275 283 288 293 295 293 293 291 291 289 287 290 298 301 293 292 297 295 296 292 289 289 287 286 284 283 281 277 279 280 279 280 276 268 261 258 256 254 261 271 275 268 267 280 286 278 269 261 259 254 246 246 239 231 230 233 234 233 233 235 241 243 240 238 238 239 239 239 239 239 239 240 242 243 244 244 242 242 245 247 248 249 249 249 249
278 284 289 292 291 290 289 290 293 293 289 288 294 297 289 286 290 292 299 294 287 287 291 291 286 286 283 281 280 279 281 284 283 278 268 262 257 254 255 261 272 276 267 275 290 292 276 270 268 258 248 246 243 239 237 242 248 248 241 236 239 244 243 240 238 238 239 240 240 240 241 241 241 242 244 245 245 244 244 246 248 249 250 250 250
282 285 287 288 287 286 284 290 295 295 293 289 292 294 285 286 291 295 296 288 287 293 298 301 300 298 289 286 284 284 285 285 285 283 276 267 259 256 259 259 263 272 269 264 271 278 273 271 267 260 258 255 255 252 245 245 253 257 252 244 240 242 244 243 241 238 236 238 239 239 240 241 242 242 243 243 245 247 247 247 248 249 250 250 252
283 285 286 284 282 282 281 292 296 292 293 294 295 292 283 288 293 295 297 296 296 297 300 304 305 302 296 291 289 288 288 286 287 286 283 276 268 264 265 265 265 266 264 259 256 260 268 276 275 270 266 262 270 274 263 255 256 257 253 246 241 239 241 242 242 242 238 237 239 240 240 241 242 242 243 243 244 246 248 249 249 249 249 250 252
283 284 284 280 278 280 282 299 303 291 294 301 298 290 286 294 297 299 301 300 298 299 303 301 299 299 297 293 290 290 287 286 288 288 289 286 282 279 273 270 269 263 257 254 254 253 256 270 283 287 285 282 282 283 278 268 256 251 250 247 244 244 243 240 240 243 243 240 239 241 242 242 243 244 243 244 244 245 247 249 250 250 250 250 251
281 278 278 276 275 279 283 300 301 287 294 303 298 294 299 305 307 301 297 296 300 304 305 301 301 300 298 296 295 293 289 288 289 290 293 292 289 288 283 273 266 261 255 252 255 258 263 269 275 283 289 291 282 268 262 254 245 243 246 248 248 249 249 245 241 241 241 241 240 241 244 245 245 245 245 245 245 245 246 247 249 250 250 251 251
276 271 270 270 269 272 277 285 288 290 303 304 302 309 312 308 304 300 295 297 300 303 304 304 304 302 299 297 294 293 294 289 288 289 294 298 306 302 291 280 270 264 259 255 261 265 270 273 272 273 271 268 257 245 241 239 239 242 247 251 250 249 250 248 246 244 243 242 242 242 243 246 247 246 246 246 247 246 246 247 247 249 250 251 252
269 263 259 258 256 261 263 271 283 296 303 303 312 318 312 304 298 296 298 301 301 301 305 307 306 305 300 295 291 293 295 289 317 356 6 358 3 9 3 347 341 314 291 276 278 276 269 267 267 267 259 253 240 231 239 242 242 246 250 254 254 253 253 251 250 249 250 250 249 247 245 246 247 248 248 248 248 247 247 247 247 249 251 251 253
257 248 246 243 238 243 245 259 273 276 282 296 310 309 305 302 297 296 301 312 314 309 312 315 314 310 302 303 314 309 127 99 72 63 60 45 42 50 60 59 60 56 46 56 63 44 360 292 259 257 253 253 243 233 241 247 248 249 253 259 259 258 260 259 255 253 255 256 253 251 249 249 249 250 251 250 250 249 249 248 248 249 251 252 254
244 237 238 231 222 219 221 237 244 249 268 294 306 306 305 306 305 307 314 327 326 320 324 326 325 327 327 334 4 93 127 100 67 62 64 57 61 59 60 64 62 57 49 48 48 45 36 20 9 301 258 250 250 241 243 248 252 255 256 259 261 263 265 265 263 262 261 259 256 254 252 252 252 252 252 253 253 251 251 251 249 249 251 253 254
237 231 229 220 213 208 211 225 232 249 280 302 309 310 307 307 313 321 330 337 332 328 338 345 343 341 338 333 14 92 139 119 62 51 64 65 67 60 54 51 47 46 45 46 41 38 36 29 23 319 287 269 268 259 255 252 255 260 260 259 260 263 267 271 273 273 269 264 260 258 257 254 252 251 250 252 254 254 252 252 251 250 251 252 254
230 223 223 219 216 214 223 233 236 265 295 305 309 309 306 311 322 332 337 337 336 339 350 2 352 342 333 323 8 44 147 131 34 32 78 70 69 63 54 42 33 43 52 53 46 36 37 37 38 20 325 296 291 287 280 269 261 263 263 264 265 266 272 278 278 270 264 262 259 258 259 257 254 251 248 247 250 252 252 252 252 252 252 252 253
222 219 221 221 221 223 233 238 243 280 295 297 306 306 305 310 318 329 331 330 343 350 352 4 1 356 344 329 332 343 123 52 353 29 106 61 79 71 50 39 40 57 56 49 48 47 49 45 51 57 41 2 330 322 314 306 297 290 283 278 278 278 284 287 276 266 263 266 264 259 258 258 255 253 251 248 246 247 249 250 252 252 253 253 253
219 219 220 222 225 227 233 237 251 275 281 294 309 293 287 287 295 305 304 309 324 340 339 355 8 20 4 346 324 348 41 356 345 99 93 28 101 72 46 49 57 63 54 46 53 61 63 56 58 61 53 46 28 10 354 344 337 328 322 311 300 297 300 294 277 269 269 269 265 259 256 257 257 255 254 253 249 247 245 247 249 250 252 253 254
218 218 219 223 224 227 231 228 238 244 244 295 314 288 268 259 264 263 257 269 276 322 336 353 8 32 23 15 347 336 349 343 343 344 344 53 113 65 54 65 65 61 52 50 54 59 65 58 57 59 54 52 46 39 26 14 10 3 355 338 324 320 313 300 284 275 271 264 261 260 258 257 258 257 256 253 251 250 247 246 247 248 250 252 254
218 217 217 219 219 224 223 215 221 232 245 283 302 276 246 237 238 239 242 244 229 228 305 325 350 19 19 20 348 323 323 329 335 330 333 46 84 65 70 68 68 60 51 53 53 58 67 61 58 61 59 56 51 46 39 28 21 17 7 353 342 334 320 300 284 276 273 267 261 260 259 256 255 256 256 253 251 251 251 249 248 248 249 250 251
215 213 212 214 218 219 215 215 223 238 250 267 279 261 239 231 228 228 232 230 219 207 240 278 276 313 350 338 320 318 320 309 301 322 323 318 346 74 70 58 71 63 53 58 56 61 68 65 64 62 58 55 48 42 35 27 21 17 8 359 354 345 329 313 295 281 274 269 264 261 259 257 256 255 256 255 253 252 251 250 250 250 250 250 250
208 207 209 213 219 220 220 225 230 239 246 257 268 256 237 229 227 227 224 220 217 203 217 247 257 266 256 265 281 278 288 278 258 276 282 295 314 358 15 31 67 61 56 58 58 62 64 66 66 59 54 48 43 37 30 24 18 14 8 1 359 353 342 328 315 299 284 273 268 267 263 259 258 257 256 256 255 253 251 251 251 251 251 251 251
204 205 210 213 216 222 226 228 228 233 240 253 261 250 238 231 231 230 223 216 205 194 214 229 233 244 243 253 264 272 277 254 221 247 263 272 281 304 337 1 8 41 56 47 60 69 62 69 66 56 51 43 37 31 26 22 16 10 5 2 359 354 347 337 325 314 300 286 277 273 269 265 262 259 258 257 255 254 252 251 252 251 250 250 251
205 207 211 213 216 223 226 225 224 225 233 248 250 239 231 229 232 231 225 221 204 188 204 223 231 240 242 247 253 275 290 295 306 288 290 286 287 302 321 341 329 304 360 12 49 82 57 66 56 44 42 32 28 23 19 18 12 4 0 360 357 353 348 340 331 321 310 298 289 282 275 269 266 262 259 258 257 256 254 253 252 251 251 251 251
206 209 212 213 216 221 221 218 218 222 230 241 239 229 223 225 229 228 224 228 222 201 206 218 228 234 236 240 245 256 263 272 284 269 278 288 296 304 306 323 310 270 317 342 359 353 328 70 33 23 22 17 17 14 11 8 3 358 356 357 357 355 349 343 337 330 321 311 301 295 287 278 272 267 262 259 257 256 255 254 252 251 251 252 251
207 210 212 212 216 222 222 218 220 228 237 243 241 230 224 228 231 230 229 237 244 239 230 230 234 233 227 226 231 239 243 246 251 253 270 279 283 295 302 307 292 277 303 314 319 329 294 254 348 1 9 10 7 5 6 2 356 353 351 353 358 359 354 349 344 338 331 324 315 308 301 293 283 275 268 263 260 257 256 255 254 252 251 250 251
213 214 213 214 221 229 228 222 225 237 245 248 245 233 230 234 236 236 236 242 248 247 243 240 244 244 235 229 230 236 239 236 237 248 261 268 272 285 296 298 287 281 288 264 278 305 284 289 319 331 346 355 354 354 357 356 352 348 346 350 355 358 359 358 353 347 339 331 324 319 313 307 300 290 280 271 265 261 259 257 256 254 251 250 250
221 221 218 219 228 236 229 222 230 242 246 244 239 231 231 234 235 236 236 242 248 248 250 246 245 246 242 240 240 244 246 240 239 247 254 260 267 273 280 288 289 285 287 276 271 272 267 287 304 308 320 335 342 343 344 348 349 345 343 346 349 352 356 358 357 355 350 341 332 326 320 317 311 304 296 284 273 265 261 260 258 256 252 249 248
227 224 221 224 233 234 225 223 236 244 240 235 230 225 228 230 233 236 236 243 251 254 258 256 253 250 248 249 249 253 255 251 249 251 254 262 268 267 261 264 278 290 292 291 290 284 273 283 295 294 304 320 329 331 333 338 342 342 340 338 340 344 348 351 355 359 358 353 345 335 326 320 316 312 307 298 286 273 264 260 259 258 255 251 248
227 223 222 227 232 229 222 226 238 239 231 228 226 224 227 229 233 239 243 249 256 259 263 265 265 262 258 256 257 262 263 260 260 259 262 264 265 266 259 254 259 273 287 291 295 297 292 292 295 288 292 311 320 323 325 328 332 338 337 331 331 335 337 341 349 356 358 358 354 348 340 330 321 316 311 305 298 285 273 264 259 259 257 255 252
225 222 223 226 228 226 223 227 232 231 227 227 228 228 230 234 242 249 254 258 262 265 267 269 271 270 268 265 263 265 266 266 266 266 269 271 268 267 264 256 251 256 274 287 293 297 294 293 297 294 291 301 310 313 316 319 324 330 333 327 322 323 327 331 338 345 351 354 353 351 347 341 331 322 315 309 303 294 282 271 263 259 258 257 255
223 220 221 224 226 224 222 224 226 228 231 232 233 235 237 242 250 256 262 266 267 268 270 271 271 271 270 267 264 264 266 268 268 266 268 272 271 270 267 260 251 251 262 275 287 292 289 288 295 300 296 295 300 305 309 312 317 322 327 324 317 314 319 323 327 333 340 345 348 347 345 342 338 330 320 312 306 299 289 279 270 263 259 257 256
221 219 221 225 226 222 220 221 223 228 234 236 238 241 243 248 254 259 265 269 270 269 271 273 273 271 269 266 265 265 266 269 272 272 269 270 272 272 270 263 256 253 258 265 276 285 284 283 289 298 300 297 295 298 301 306 311 316 320 320 315 311 314 318 320 323 329 335 340 342 342 340 339 335 328 318 309 302 295 285 275 268 263 259 256
221 219 222 226 226 222 221 223 225 230 234 236 240 243 246 251 255 259 264 269 270 270 272 274 274 273 271 268 268 269 270 272 276 278 276 275 275 274 273 269 264 262 260 261 269 281 287 287 288 295 302 302 298 294 295 300 305 311 313 314 314 312 309 312 315 317 322 328 332 336 338 338 337 336 334 326 316 307 300 292 282 273 267 262 258
224 222 224 227 226 224 225 227 228 231 235 236 241 245 249 252 255 258 261 264 266 266 268 271 272 272 272 272 272 273 274 276 278 278 277 276 275 273 272 271 270 269 265 263 269 281 290 293 291 294 300 302 300 298 298 301 303 307 306 304 309 311 308 307 308 311 316 322 327 330 333 335 334 335 335 332 325 315 305 298 289 279 269 264 261
226 225 227 227 227 226 228 230 230 232 236 238 242 247 250 254 255 257 259 260 262 262 262 264 267 270 273 274 274 274 275 276 277 277 276 276 273 271 271 269 270 273 270 265 268 278 289 294 294 295 298 299 299 300 301 302 303 306 303 297 299 304 307 305 302 305 311 317 321 325 328 331 332 332 333 333 330 323 314 305 295 285 274 266 262
228 227 228 228 228 228 230 231 231 233 237 240 244 248 252 255 257 259 262 263 263 262 260 261 264 267 270 272 273 273 272 272 274 274 275 277 275 272 274 272 269 273 275 269 267 273 284 292 295 297 298 297 296 298 301 302 303 303 299 294 293 295 300 304 301 301 307 312 316 320 323 326 328 329 330 330 329 326 321 314 304 293 282 270 262
231 229 228 228 228 229 229 230 231 233 237 241 246 250 254 257 260 263 266 268 267 264 261 260 262 265 266 268 271 271 270 269 271 271 272 277 279 274 274 275 272 273 276 273 270 272 279 289 295 299 299 296 295 296 298 301 303 304 299 297 297 293 294 299 299 299 302 307 312 315 318 321 323 323 325 326 325 325 323 319 311 301 289 277 266
233 231 230 229 230 231 231 231 233 235 239 243 248 252 256 260 263 266 268 269 268 267 263 260 260 263 266 268 270 271 269 269 269 268 269 274 278 275 271 273 274 274 275 274 273 275 281 287 292 296 298 297 295 295 297 299 300 303 303 303 303 299 295 298 299 297 297 298 303 308 312 315 317 317 319 322 323 322 321 319 314 306 295 283 272
235 233 232 233 234 235 237 238 239 239 242 246 251 255 259 261 263 264 264 264 266 267 267 263 260 261 265 270 272 271 270 269 268 268 269 272 275 274 271 270 271 273 275 276 277 279 284 288 290 293 297 297 295 295 297 298 296 297 300 301 303 303 301 300 300 299 297 294 296 301 306 310 312 313 315 319 321 321 319 316 312 306 298 287 275
238 237 236 236 237 238 240 242 243 244 245 249 254 257 259 259 258 257 256 258 262 265 267 266 262 261 265 269 269 269 268 268 268 269 271 271 272 273 272 268 267 269 272 276 281 282 284 286 288 292 295 296 297 296 298 299 297 297 301 301 301 301 301 300 300 300 299 296 295 296 299 303 305 305 306 310 316 318 315 312 308 303 298 292 280
241 240 238 239 241 241 242 244 246 246 246 249 254 256 256 254 253 252 252 256 260 263 263 263 262 262 264 265 266 267 268 267 269 271 272 271 269 271 274 270 264 264 269 274 278 279 282 283 285 288 292 293 295 296 297 297 296 297 299 299 297 298 300 300 298 298 299 297 296 295 297 299 298 297 296 300 309 314 312 308 305 299 294 291 283
241 242 239 240 242 243 245 246 246 245 246 249 254 254 252 251 251 250 252 256 259 260 260 259 259 260 262 264 265 266 267 267 269 271 273 272 267 267 271 270 264 261 264 270 272 274 278 281 282 286 288 288 292 296 296 295 295 295 296 296 295 297 300 299 296 295 297 298 297 295 296 298 295 292 291 292 302 309 306 300 299 295 289 285 281
239 242 240 240 241 243 245 246 245 244 245 250 254 252 250 250 249 248 251 256 256 257 258 258 258 258 260 264 267 267 267 268 270 273 277 275 268 263 266 270 269 264 262 264 267 270 274 276 278 281 284 286 292 296 295 294 296 296 296 296 296 296 298 298 296 295 295 296 296 294 294 296 294 291 289 288 295 301 299 296 297 295 290 286 282
237 240 240 239 240 242 243 245 245 244 247 252 255 254 253 253 251 249 251 254 255 257 258 257 259 261 262 264 267 269 269 271 273 275 279 279 271 263 263 268 270 268 264 261 261 265 269 272 274 277 280 288 293 293 293 295 298 298 298 297 295 294 294 294 293 293 293 295 294 291 291 293 294 293 290 287 289 291 294 297 297 293 289 286 282
235 238 240 242 242 243 244 247 246 244 249 255 257 257 257 258 257 253 251 254 257 258 258 260 262 263 264 265 266 268 272 274 275 277 280 281 274 266 265 268 270 271 270 266 263 264 266 266 268 273 278 285 289 290 291 296 297 297 296 295 293 292 291 290 290 292 293 294 291 287 287 289 293 294 290 288 288 286 289 294 294 290 286 285 282
233 237 239 242 242 243 247 251 250 248 253 258 260 261 261 262 262 257 253 256 258 259 262 263 265 265 266 266 267 269 272 273 274 279 281 278 272 267 267 269 272 274 275 274 271 268 267 265 262 267 274 280 285 288 291 294 293 291 291 291 291 290 288 287 288 289 290 290 286 282 282 286 293 295 291 290 291 287 286 290 290 287 283 280 279
233 236 240 242 243 244 250 256 256 255 257 259 261 264 264 265 265 259 256 257 259 261 263 263 265 266 266 267 267 268 269 271 276 284 286 277 268 267 270 272 275 276 275 275 273 268 269 268 264 264 271 278 282 284 288 291 289 287 287 287 286 286 286 286 287 287 287 287 285 281 278 285 294 296 292 293 294 290 288 288 288 285 280 277 276
233 238 242 245 246 249 255 259 260 259 261 262 263 266 267 266 263 259 257 258 261 263 263 264 265 265 265 266 265 264 265 266 270 279 284 278 267 265 271 275 279 280 278 280 283 281 276 269 264 266 273 279 282 285 290 294 291 288 288 287 285 284 284 284 284 287 289 290 289 285 281 286 295 295 293 296 296 292 289 288 286 283 279 275 272
234 240 243 246 250 254 257 259 261 261 262 264 266 269 271 268 263 259 257 258 261 263 263 265 266 265 268 267 264 267 269 263 259 266 275 275 270 271 275 277 280 283 284 288 292 294 290 278 273 275 279 283 289 295 301 303 300 295 288 284 285 286 286 286 285 288 291 291 291 288 284 287 293 291 292 295 293 290 288 286 285 283 278 273 269
233 238 243 249 255 258 259 260 261 261 261 264 266 269 273 272 267 262 259 259 261 262 263 266 266 269 271 266 264 273 272 260 253 261 265 264 266 271 275 276 280 285 288 292 294 296 298 294 291 292 293 295 301 308 311 311 310 303 281 273 282 289 289 289 290 292 292 290 289 287 283 286 289 288 291 294 290 286 286 284 285 284 278 271 266
234 240 246 254 258 260 261 262 262 259 259 264 266 266 268 269 268 266 262 258 256 257 262 266 267 270 267 260 265 274 266 254 253 259 259 258 262 269 273 275 279 284 289 293 290 288 292 293 293 297 299 299 302 306 307 306 307 301 279 273 283 288 288 290 292 293 292 289 290 289 284 287 290 289 291 295 291 287 287 285 283 282 278 272 264
Height
855 855 856 856 856 856 856 856 856 857 857 857 857 856 856 856 856 856 856 855 855 855 854 853 852 852 852 851 851 850 850 850 850 850 850 850 850 850 850 851 852 852 852 853 854 855 855 856 857 859 860 860 861 862 864 865 865 866 867 867 868 869 870 870 871 871 872 873 874 874 875 876 876 877 877 878 878 878 878 878 879 878 878 878 878
854 855 855 855 855 856 855 856 856 856 856 856 856 856 856 855 855 855 855 854 854 854 853 853 852 852 851 851 850 850 849 849 849 849 849 849 849 849 849 850 850 851 851 852 853 854 855 856 856 857 858 859 860 861 863 863 864 864 865 866 867 868 869 869 869 870 871 871 872 873 874 874 875 876 876 876 877 877 877 878 878 878 878 878 878
854 854 855 855 855 855 855 855 855 855 855 855 855 855 855 855 855 855 854 854 854 853 853 852 852 851 850 850 850 849 849 849 848 849 849 848 848 848 848 849 849 849 850 850 852 853 854 854 855 855 855 856 857 859 859 860 860 860 861 863 865 866 867 868 868 868 869 869 870 871 872 873 873 874 875 875 876 876 876 877 877 877 877 877 877
853 854 854 854 854 854 854 854 854 854 854 854 854 855 855 854 854 854 854 853 853 853 852 852 851 851 850 850 849 849 849 848 848 848 848 847 847 847 847 848 848 848 848 849 850 851 852 852 852 852 852 852 853 855 856 856 856 855 856 859 861 863 865 866 867 867 867 868 868 869 870 870 871 872 873 873 874 874 875 875 876 876 876 876 876
852 853 853 853 853 853 853 853 854 854 853 853 853 854 854 853 853 853 853 853 853 852 852 851 851 850 850 850 849 849 848 848 848 847 847 847 847 846 846 846 847 847 847 847 848 849 850 850 849 849 849 850 851 853 854 854 855 855 856 857 859 861 862 864 864 865 865 866 866 867 868 868 869 870 871 872 872 873 873 874 874 874 875 875 875
851 852 852 852 852 852 852 852 853 853 852 852 852 852 853 852 852 852 852 852 852 851 851 850 850 850 850 849 849 849 848 848 847 847 846 846 846 845 845 845 845 846 846 846 847 847 848 848 847 848 849 849 849 851 852 852 854 855 856 856 857 858 860 861 862 863 863 863 864 864 865 866 867 868 869 870 870 871 872 872 872 873 873 874 874
850 851 851 851 851 851 851 851 851 851 851 851 851 851 852 851 851 851 851 851 851 851 850 850 850 849 849 849 848 848 847 847 847 846 846 845 845 845 844 844 844 844 845 845 846 846 846 846 846 847 848 848 848 848 849 850 852 854 855 854 854 855 856 859 860 861 861 861 861 862 863 864 865 866 867 868 868 869 870 870 871 871 872 872 872
849 849 849 850 850 850 850 850 850 850 850 850 850 850 851 851 850 850 850 851 850 850 850 849 849 848 848 848 847 847 846 846 846 845 845 845 845 844 844 843 843 843 843 844 844 844 844 844 844 845 845 846 846 847 848 849 851 853 853 853 853 853 854 856 857 858 859 859 859 860 860 861 862 864 865 866 867 867 868 868 869 870 870 870 871
848 848 848 848 849 849 849 849 849 850 850 850 849 850 850 850 850 850 850 850 850 849 849 848 848 847 847 846 846 846 845 845 845 845 844 844 844 844 843 843 843 843 843 843 843 843 843 843 843 843 844 845 845 846 848 848 849 850 851 852 852 852 853 853 853 854 855 856 857 857 858 859 860 861 862 863 865 865 866 866 867 868 868 869 869
846 847 847 847 848 848 848 848 848 849 849 849 849 849 849 849 849 849 849 849 849 848 847 847 847 846 846 846 845 845 844 844 844 843 843 843 843 843 843 842 842 843 843 843 843 843 843 843 843 843 843 844 845 846 846 846 848 848 849 850 850 850 850 850 850 851 852 854 855 855 856 857 858 859 859 861 862 863 864 864 865 866 867 867 867
845 846 846 846 847 847 847 847 848 848 848 848 848 848 848 848 848 848 848 848 847 847 846 846 845 845 845 844 844 843 843 843 843 843 842 842 842 842 842 842 842 843 843 843 843 843 843 843 842 842 843 843 843 844 843 844 846 847 847 847 847 847 846 847 847 849 850 852 853 854 855 855 856 857 858 858 859 860 861 862 863 864 864 865 866
844 844 845 845 846 846 846 846 847 847 848 848 848 848 848 848 848 847 847 847 846 846 845 845 844 844 843 843 842 842 842 843 843 842 842 842 842 842 842 842 843 843 843 843 844 844 843 843 843 843 843 842 842 842 842 843 843 844 844 844 844 844 844 844 845 846 849 850 851 852 853 854 854 855 856 856 857 858 858 859 860 861 862 862 863
843 844 844 844 845 845 845 846 846 847 847 847 847 847 846 847 846 846 846 846 846 845 845 844 843 842 842 842 841 841 842 842 843 842 842 842 842 842 842 842 843 843 843 843 843 844 844 843 843 843 842 842 842 841 841 841 842 842 842 842 842 842 841 841 843 845 847 848 849 850 851 852 853 853 854 854 855 855 856 856 857 858 859 860 860
843 843 843 843 844 844 845 845 846 846 846 846 846 845 846 846 846 845 845 845 845 844 844 843 843 842 841 841 841 841 841 842 842 842 842 842 842 842 842 842 843 842 843 843 843 844 844 843 843 843 842 842 842 842 841 841 841 841 841 840 840 840 839 840 842 844 845 845 846 847 848 849 850 850 851 852 852 853 853 853 854 855 855 856 857
842 842 842 843 843 844 844 845 845 845 845 845 845 845 845 845 845 845 845 844 844 844 844 843 843 842 842 842 841 841 841 842 842 842 842 842 842 843 843 843 843 842 842 843 843 843 843 843 842 842 842 842 841 841 841 840 840 839 839 839 839 838 838 839 841 841 841 841 843 845 846 846 846 846 846 847 848 849 850 850 851 851 852 853 854
841 841 842 842 843 843 844 844 844 844 844 845 844 845 844 844 844 844 844 844 844 844 843 843 843 843 842 842 841 841 842 842 842 842 842 842 842 842 843 843 843 842 842 842 842 842 842 842 842 841 841 841 841 841 840 840 839 839 839 838 838 838 837 838 838 838 838 839 840 842 842 842 842 842 843 844 844 844 845 846 847 848 849 850 851
839 840 841 841 842 843 843 843 844 844 844 844 844 844 844 844 844 844 844 844 843 844 843 843 843 843 842 842 841 842 843 842 841 841 841 841 842 842 842 843 842 842 842 842 842 841 842 842 841 841 841 840 840 840 840 840 839 839 838 838 837 837 837 836 836 835 836 837 838 839 839 838 839 840 840 841 842 841 841 842 843 844 845 846 847
838 839 840 841 842 842 843 843 844 844 844 844 844 844 843 843 843 843 844 844 844 844 843 843 843 843 842 842 842 843 843 842 842 842 841 841 841 842 842 842 842 842 843 843 842 842 842 842 841 841 841 841 840 840 839 839 838 838 838 837 836 836 835 835 835 834 835 836 836 836 836 836 836 837 837 838 839 839 839 839 839 840 842 843 844
837 839 839 840 841 842 842 843 843 844 844 844 843 843 843 843 843 843 843 843 843 843 843 843 843 842 842 842 842 842 843 842 843 843 842 841 841 842 842 842 842 843 843 843 843 842 842 842 842 841 841 841 840 840 839 838 838 837 836 836 835 834 834 834 833 833 833 834 834 834 834 834 834 834 834 834 835 836 836 836 837 837 838 839 840
837 838 839 840 841 841 842 842 843 843 843 843 843 843 843 843 843 843 843 843 843 843 843 843 843 842 842 842 842 842 842 843 843 843 844 843 841 840 842 842 842 843 843 843 843 843 842 842 842 842 841 841 840 840 839 838 837 836 836 835 834 833 833 832 832 832 832 832 832 832 832 832 831 831 831 831 832 832 832 833 833 834 835 836 837
836 837 838 839 840 840 841 841 842 842 843 843 843 842 842 842 843 843 843 843 843 843 843 843 843 842 842 842 842 842 842 842 843 843 843 843 842 840 840 841 842 842 842 843 843 843 843 842 842 842 841 841 841 840 839 838 837 836 835 834 833 832 831 831 830 829 829 829 829 829 828 828 828 828 828 828 828 829 829 829 830 830 831 832 833
834 836 837 838 839 839 840 840 841 841 842 842 842 842 842 842 842 842 842 842 842 842 843 843 843 842 842 842 841 841 841 842 842 843 842 843 843 840 839 840 840 841 842 842 842 842 842 842 842 842 841 841 840 840 839 838 837 836 835 833 832 831 830 829 828 827 826 826 825 825 825 825 825 824 824 825 825 825 825 825 826 826 827 828 829
833 834 835 836 837 838 838 839 840 840 841 841 841 841 842 842 842 842 842 842 842 842 842 843 842 842 842 842 842 841 841 841 842 842 842 842 842 841 840 840 840 840 840 841 841 841 841 841 841 841 841 840 840 839 838 837 836 835 834 833 831 830 829 827 826 825 824 823 822 822 822 822 821 821 821 821 821 821 821 822 822 823 824 825 826
831 832 833 835 835 836 837 838 838 839 840 840 840 841 841 841 841 841 841 841 841 841 842 842 842 842 842 842 842 841 841 842 842 842 842 842 842 841 840 841 840 840 839 839 839 840 840 840 840 840 840 839 839 839 838 837 836 834 833 832 830 828 827 826 824 823 822 821 820 819 818 818 818 818 818 818 818 818 818 818 819 819 820 821 822
829 831 832 833 834 834 835 836 837 838 838 839 839 839 840 840 840 840 841 840 841 841 841 842 842 842 842 842 841 841 841 841 841 842 842 842 842 841 840 840 840 839 839 838 838 838 838 838 838 838 838 838 837 837 836 836 835 833 832 830 829 827 826 824 823 821 820 819 818 817 816 815 815 815 814 814 814 814 814 815 815 816 816 817 818
828 829 830 831 832 833 834 835 835 836 837 837 838 838 839 839 839 840 840 840 840 840 841 841 841 841 841 841 841 840 840 840 840 841 841 841 841 841 840 840 839 837 837 837 837 837 836 836 836 836 836 836 836 835 835 834 833 832 831 829 827 826 824 823 821 820 818 817 816 815 814 813 812 812 811 811 811 811 811 811 812 812 813 814 814
826 827 829 830 831 832 833 834 835 835 836 836 836 837 837 838 838 839 839 839 839 840 840 840 840 840 840 840 840 840 839 839 839 839 840 840 840 840 840 840 838 836 834 835 834 834 834 834 835 835 834 834 834 833 833 832 831 830 829 827 826 825 823 821 820 818 817 815 814 813 812 810 809 809 808 808 808 807 807 807 808 808 809 810 810
825 827 828 829 830 831 832 833 834 834 835 835 835 836 836 837 837 838 838 838 839 839 839 839 839 840 840 840 839 839 839 838 838 838 838 839 839 839 839 839 839 837 834 833 832 831 832 832 832 832 832 832 832 831 831 830 829 828 827 826 825 823 822 820 819 817 815 814 813 811 810 808 807 806 805 805 804 804 804 804 804 804 805 806 806
824 825 827 828 829 830 831 832 832 833 834 834 835 835 835 836 836 837 837 837 838 838 838 838 838 839 839 839 838 838 838 837 837 837 837 837 838 838 838 838 838 837 835 833 831 829 829 830 830 830 830 830 830 829 828 827 827 826 825 824 823 821 820 819 817 816 814 812 811 810 808 806 805 803 802 801 801 800 800 800 800 800 801 801 802
823 824 825 826 827 828 829 830 831 832 833 833 834 834 834 835 835 836 836 836 837 837 837 837 838 838 838 837 837 837 836 836 836 836 836 836 836 836 836 836 836 835 834 832 830 829 828 828 828 828 828 828 828 827 826 825 824 824 823 822 821 819 818 816 815 814 812 811 809 808 806 804 803 801 799 798 797 797 797 797 797 797 797 797 798
820 821 823 824 825 826 827 828 829 830 832 832 833 834 834 834 834 835 835 835 836 836 836 836 836 837 836 836 836 835 835 835 834 834 834 834 834 834 834 834 834 834 832 831 829 828 828 827 825 825 826 825 825 824 824 823 821 820 820 819 818 817 815 814 812 811 810 808 807 805 804 802 800 798 797 795 794 793 793 793 793 793 793 793 794
818 819 820 822 823 824 826 827 828 829 830 831 832 832 833 833 833 834 834 834 834 834 834 834 835 835 835 835 834 833 833 833 833 833 833 833 833 832 833 832 832 831 831 830 828 826 827 826 823 822 822 822 822 821 821 820 819 817 816 816 815 814 813 811 809 808 807 806 804 803 801 799 798 796 794 792 791 790 789 789 789 789 789 789 789
816 817 819 820 821 823 824 825 826 827 828 829 830 831 831 832 832 833 833 833 833 833 832 832 833 833 833 833 832 832 831 831 831 831 831 831 831 831 831 830 830 830 829 828 826 823 823 824 823 821 820 820 819 818 818 817 817 815 814 813 812 811 810 809 807 805 804 802 801 799 798 796 795 793 791 789 788 787 786 785 785 785 785 785 785
816 817 818 819 820 821 823 824 824 825 826 826 828 829 829 830 831 831 831 831 831 831 831 831 831 831 831 831 830 830 829 829 829 829 829 829 829 829 829 829 828 828 827 826 825 822 820 821 821 820 818 818 816 815 815 815 814 813 812 810 809 808 807 806 804 802 800 799 798 796 795 793 791 790 788 787 785 783 782 781 780 780 780 780 781
815 815 816 817 818 819 820 821 822 823 824 824 826 826 827 829 829 830 830 829 829 829 829 829 829 829 829 829 828 828 827 827 827 827 827 827 827 827 827 827 826 826 826 825 824 822 819 818 819 818 817 816 814 813 813 812 811 811 809 808 806 805 804 802 801 799 797 796 794 792 791 789 788 786 785 783 782 780 779 777 777 776 775 775 776
812 813 814 815 816 817 818 818 819 820 821 822 823 824 825 826 827 827 827 827 827 827 827 827 827 827 827 827 826 826 826 826 825 825 825 825 825 825 825 825 825 824 823 823 822 821 818 816 816 816 815 814 813 811 810 810 809 808 807 805 804 802 801 799 798 796 794 792 790 788 787 785 784 782 780 779 778 776 775 773 772 771 771 770 770
810 811 812 812 813 813 814 815 816 817 819 820 821 821 822 823 824 824 825 825 824 824 824 824 824 824 824 824 824 825 824 824 824 823 823 823 823 823 823 823 822 822 821 820 819 819 817 815 814 813 813 812 811 809 808 807 806 805 804 802 801 800 798 797 795 792 790 788 786 784 783 781 779 778 776 775 773 772 771 769 768 767 766 766 765
807 808 809 810 810 810 811 812 813 815 816 817 818 819 820 820 821 821 821 821 821 822 822 822 822 822 822 822 822 822 822 822 821 821 821 821 820 820 821 820 820 819 818 818 817 816 815 814 812 811 810 809 808 807 806 805 804 803 801 800 799 798 796 795 793 790 788 785 783 781 779 777 776 774 772 770 769 767 766 764 763 761 761 761 760
805 805 806 807 808 808 809 810 812 812 813 815 816 816 817 817 817 818 818 818 818 819 819 819 819 819 819 820 820 820 820 819 819 819 818 818 818 818 818 818 817 817 816 815 815 814 813 812 810 809 808 807 806 805 804 803 802 801 799 797 795 794 794 792 790 788 786 783 781 778 776 773 771 769 767 766 764 763 761 760 758 756 755 755 755
801 802 803 805 806 806 807 808 809 810 811 812 813 813 814 814 814 815 815 815 816 816 816 816 816 817 817 817 817 817 817 816 816 816 816 815 815 815 815 815 815 815 814 813 812 812 811 810 808 807 806 805 804 803 802 801 800 798 797 795 793 792 791 790 788 786 783 781 778 776 774 771 768 766 763 761 760 758 757 755 753 751 750 749 749
798 799 800 802 803 804 804 805 807 808 808 809 810 811 811 812 812 813 813 813 814 814 814 814 814 814 814 814 814 814 814 813 813 813 813 812 812 812 812 812 812 812 811 811 810 809 809 808 806 805 804 802 801 800 799 798 797 795 794 793 791 789 788 786 785 783 781 778 776 773 771 769 766 763 760 758 756 754 752 751 749 747 745 745 744
794 795 797 799 800 801 802 802 804 805 805 806 807 808 809 810 810 810 810 811 812 812 812 812 812 811 812 812 811 811 811 811 810 810 809 809 809 809 809 809 809 809 809 809 808 807 806 805 804 802 801 799 798 797 796 796 794 793 791 790 788 786 785 782 780 780 779 776 773 769 768 767 764 759 756 754 751 749 748 746 744 743 741 740 740
791 792 794 796 796 797 798 799 800 801 802 802 804 805 806 807 807 807 808 808 809 810 810 809 809 809 809 809 808 808 808 808 807 806 806 805 805 805 806 806 806 806 805 805 805 804 804 802 801 800 798 797 796 795 794 793 792 790 789 787 786 784 782 779 776 775 775 774 771 766 763 763 761 756 752 750 747 744 743 741 739 738 736 735 734
788 789 790 792 792 793 794 796 797 797 798 799 801 802 803 804 805 805 805 806 806 807 807 806 806 806 806 806 805 805 805 804 804 803 802 802 802 802 803 803 803 802 802 802 802 801 801 799 798 797 796 794 793 793 792 790 789 787 786 784 783 781 779 777 774 771 771 771 769 764 759 757 757 753 748 745 742 739 737 735 733 731 730 728 728
785 786 787 788 789 790 792 793 794 794 795 796 798 799 800 801 802 802 803 803 803 804 804 803 804 803 803 803 802 802 802 801 800 800 800 799 799 800 800 800 799 799 798 798 798 798 798 797 795 794 793 792 791 790 789 788 787 785 783 781 780 778 775 774 771 768 768 768 766 761 755 753 753 749 743 740 738 734 731 728 727 725 724 723 722
782 783 784 786 786 788 789 791 791 791 792 794 795 796 797 798 799 800 800 801 801 801 800 801 801 800 800 800 799 799 799 798 797 798 798 798 797 798 798 797 796 796 795 794 794 794 794 793 792 791 790 790 789 788 787 786 785 783 781 779 777 775 772 770 768 766 764 764 762 758 751 748 748 744 738 735 733 729 726 723 721 719 718 716 716
779 780 782 783 784 786 787 788 789 789 789 791 792 792 793 795 796 797 797 798 798 798 798 798 798 797 797 797 796 796 796 796 796 796 796 796 796 795 795 794 794 793 792 792 791 791 791 790 789 788 788 787 786 785 784 783 782 781 779 777 774 772 769 767 764 762 760 759 758 754 746 743 744 739 732 730 727 723 721 718 715 713 712 710 709
777 778 780 781 782 784 785 786 786 786 786 787 788 789 790 791 793 794 794 794 795 795 795 795 795 794 794 794 793 793 793 793 793 793 794 794 794 793 792 792 791 791 790 789 788 788 788 787 787 786 785 784 783 782 781 780 778 777 776 774 772 769 767 763 760 757 755 753 753 750 742 739 739 734 727 724 722 717 715 712 709 707 705 704 703
774 776 777 778 780 782 783 783 784 784 783 784 785 785 786 788 789 791 791 791 791 791 792 792 792 791 791 791 791 791 791 790 790 790 791 792 791 791 790 789 789 788 787 786 785 784 784 784 783 783 782 781 780 778 777 775 774 774 773 771 769 766 763 760 756 752 750 747 746 745 739 735 735 730 722 719 717 712 708 705 702 700 699 697 696
771 773 775 777 778 779 780 780 781 781 780 781 782 783 784 785 786 788 788 788 788 789 788 789 789 788 788 787 788 789 788 787 787 787 788 788 788 788 788 787 786 785 784 784 784 783 782 781 781 780 779 778 776 774 773 772 771 771 770 768 766 763 760 757 753 749 746 741 740 740 736 732 730 726 719 715 709 704 703 700 696 694 693 690 689
769 772 774 775 776 776 777 777 778 778 779 779 779 780 781 783 784 784 785 785 785 786 786 786 785 784 784 783 783 784 783 783 783 784 784 785 785 785 785 784 784 783 783 783 782 782 781 780 779 778 777 776 774 772 770 769 768 767 766 765 763 761 758 755 751 748 743 736 734 736 732 728 725 722 718 714 705 695 694 695 692 689 687 685 683